Regional Weather Roundup
Issued by NWS

Home | Current Version | Previous Version | Graphics & Text | Print | Product List | Glossary On
Versions: 1 2 3 4 5 6 7 8 9 10 11 12 13 14 15 16 17 18 19 20 21 22 23 24 25 26 27 28 29 30 31 32 33 34 35 36 37 38 39 40 41 42 43 44 45 46 47 48 49 50
688
ASUS43 KMPX 221910
RWRMN
WEATHER ROUNDUP FOR MINNESOTA
NATIONAL WEATHER SERVICE TWIN CITIES/CHANHASSEN MN
100 PM CST THU FEB 22 2018


NOTE: "FAIR" INDICATES FEW OR NO CLOUDS BELOW 12,000 FEET WITH NO
SIGNIFICANT WEATHER AND/OR OBSTRUCTIONS TO VISIBILITY. N/A MEANS
CURRENT SKY AND/OR WEATHER CONDITIONS ARE NOT AVAILABLE.

MNZ060>063-068>070-222000-
   Twin Cities Metro

CITY           SKY/WX    TMP DP  RH WIND       PRES   REMARKS
TWIN CITIES    CLOUDY    26  14  60 SE9       30.49F WCI  17
ST PAUL        CLOUDY    27  13  55 VRB3      30.51F
CRYSTAL        CLOUDY    25  10  53 SE5       30.48F WCI  19
BLAINE         CLOUDY    27  12  54 E6        30.48F WCI  20
LAKEVILLE      CLOUDY    25  16  68 E7        30.47F WCI  17
EDEN PRAIRIE   CLOUDY    27  14  58 SE9       30.47F WCI  18
SOUTH ST PAUL  CLOUDY    28  12  52 E5        30.49F WCI  22
LAKE ELMO      PTSUNNY   28  14  54 E6        30.50F WCI  22
$$
MNZ001>005-007-008-013>017-022>024-027-028-222000-
   Northwest Minnesota

CITY           SKY/WX    TMP DP  RH WIND       PRES   REMARKS
BEMIDJI        FAIR      24   1  37 S9        30.40F WCI  14
HALLOCK        FAIR      12   7  79 S18       30.39F WCI  -5
ROSEAU         FAIR      19  10  68 S14       30.39F WCI   6
WARROAD        FAIR      21   9  58 SW14G20   30.40F WCI   8
THIEF RVR FALL FAIR      18  10  71 SW16G22   30.40F WCI   3
CROOKSTON      FAIR      18  10  73 S18       30.42F HAZE    WCI   2
FOSSTON        FAIR      23   7  50 S14       30.40F WCI  11
DETROIT LAKES  FAIR      23  10  58 S12       30.40F WCI  12
MOORHEAD       FAIR      19  10  68 S17G25    30.42F WCI   4
PARK RAPIDS    CLOUDY    21   4  47 S15       30.41F WCI   8
MAHNOMEN       MOCLDY    22   8  54 S13       30.39F WCI  10
$$
MNZ006-009>011-018-025>026-222000-
   North Central Minnesota

CITY           SKY/WX    TMP DP  RH WIND       PRES   REMARKS
BAUDETTE       FAIR      21   1  41 S9        30.40F WCI  11
FLAG ISLAND    FAIR      10   3  72 SE9       30.38F WCI  -2
INTL FALLS     FAIR      23   0  36 SW8       30.43F WCI  14
WASKISH        FAIR      21   5  49 W3        30.42F
BIG FORK       FAIR      27   5  39 S8        30.43F WCI  18
LONGVILLE      FAIR      25   0  33 S9        30.44F WCI  15
GRAND RAPIDS   FAIR      23   2  40 S13       30.46F WCI  11
CRANE LAKE     FAIR      25  -2  30 S6        30.47F WCI  18
ORR            FAIR      27  -2  28 S12       30.42F WCI  16
COOK             N/A     25   0  33 S8        30.45F WCI  16
WALKER         FAIR      24   1  35 SE5       30.42F WCI  19
$$
MNZ012-019>021-037-222000-
   Northeast Minnesota

CITY           SKY/WX    TMP DP  RH WIND       PRES   REMARKS
DULUTH         FAIR      20   4  50 S3        30.48F
ELY            FAIR      27   0  31 S9        30.45F WCI  17
HIBBING        FAIR      23   1  38 S7        30.45F WCI  15
DULUTH HARBOR  PTSUNNY   19  10  68 NE3       30.56F
TWO HARBORS    FAIR      37  12  35 S5        30.50F
GRAND MARAIS     N/A     25  14  63 S5        30.57F WCI  19
G MARAIS ARPRT FAIR      21   9  58 SE5       30.48F WCI  15
$$
MNZ029>031-032-039>041-046>048-054>057-064-222000-
   West Central Minnesota

CITY           SKY/WX    TMP DP  RH WIND       PRES   REMARKS
FERGUS FALLS   CLOUDY    19  10  68 S16       30.43F WCI   5
WHEATON        CLOUDY    19  12  73 SE10      30.44F WCI   8
MORRIS         CLOUDY    21  14  73 SE12      30.42F WCI   9
ALEXANDRIA     CLOUDY    21  11  65 SE7       30.43F WCI  12
ELBOW LAKE     CLOUDY    20  11  70 SE14      30.43F WCI   6
WADENA         CLOUDY    19   5  53 SE8       30.42F WCI   9
GLENWOOD       FAIR      25  14  63 SE7       30.43F WCI  17
APPLETON       CLOUDY    25  16  68 SE10      30.43F WCI  15
BENSON         CLOUDY    25  14  63 SE7       30.45F WCI  17
ORTONVILLE     CLOUDY    21  14  73 S6        30.41F WCI  14
MADISON        CLOUDY    25  18  74 SE8       30.42F WCI  16
WILLMAR        CLOUDY    23  16  74 E8        30.46F WCI  14
$$
MNZ033>034-036-042>043-049>051-058-059-222000-
   Central Minnesota

CITY           SKY/WX    TMP DP  RH WIND       PRES   REMARKS
ST CLOUD       CLOUDY    21  10  62 SE9       30.47F WCI  11
SAUK CENTRE    CLOUDY    21  10  63 SE7       30.45F WCI  13
PAYNESVILLE    CLOUDY    23  15  69 SE8       30.45F WCI  14
AITKIN         FAIR      19   1  45 SE6       30.46F WCI  11
PINE RIVER     CLOUDY    19   3  49 SE8       30.47F WCI   9
BRAINERD       CLOUDY    21   3  45 SE6       30.46F WCI  13
STAPLES        CLOUDY    21   3  45 S10       30.44F WCI  10
LONG PRAIRIE   CLOUDY    19   9  63 E3        30.45F
LITTLE FALLS   CLOUDY    21   3  45 E6        30.46F WCI  14
LITCHFIELD     PTSUNNY   23  16  74 E8        30.46F WCI  14
BUFFALO        CLOUDY    23  11  61 NE7       30.48F WCI  15
MAPLE LAKE     CLOUDY    23  13  65 E7        30.48F WCI  14
HUTCHINSON     CLOUDY    24  16  70 E6        30.47F WCI  17
$$
MNZ037-044-045-052-053-222000-
   East Central Minnesota

CITY           SKY/WX    TMP DP  RH WIND       PRES   REMARKS
PRINCETON      CLOUDY    21   7  53 CALM      30.49F
CAMBRIDGE        N/A     23   9  54 E3        30.51F
RUSH CITY      CLOUDY    21   8  56 CALM      30.51F
MOOSE LAKE     CLOUDY    23   5  46 CALM      30.48F
HINCKLEY       CLOUDY    23   7  50 E5        30.50F WCI  17
CLOQUET        CLOUDY    19   0  42 SE3       30.48F
MCGREGOR       CLOUDY    25   3  39 S6        30.48F WCI  18
$$
MNZ071>073-080-081-089-090-097-098-222000-
   Southwest Minnesota

CITY           SKY/WX    TMP DP  RH WIND       PRES   REMARKS
MONTEVIDEO     CLOUDY    25  18  74 SE7       30.43F WCI  17
GRANITE FALLS  CLOUDY    26  17  69 E3        30.45F
CANBY          CLOUDY    24  18  78 SE8       30.42F WCI  14
MARSHALL       CLOUDY    24  17  74 E7        30.41F WCI  16
REDWOOD FALLS  CLOUDY    25  19  78 E7        30.43F WCI  17
OLIVIA         CLOUDY    27  19  74 E7        30.44F WCI  19
PIPESTONE      CLOUDY    23  19  86 E9        30.33F WCI  13
WORTHINGTON    LGT SNOW  23  19  85 NE14      30.35F FOG     WCI  11
JACKSON        CLOUDY    23  19  86 NE9       30.38F WCI  13
TRACY          CLOUDY    24  20  86 E6        30.39F WCI  17
SLAYTON        LGT SNOW  23  20  87 E10       30.36F WCI  12
$$
MNZ065>067-074>077-082>085-091>093-222000-
   South Central Minnesota

CITY           SKY/WX    TMP DP  RH WIND       PRES   REMARKS
MANKATO        CLOUDY    27  19  72 E10       30.44F WCI  17
NEW ULM        CLOUDY    23  16  74 NE8       30.43F WCI  14
ST JAMES       CLOUDY    23  19  86 NE7       30.43F WCI  15
FAIRMONT       CLOUDY    27  22  81 NE9       30.41  WCI  18
GLENCOE        CLOUDY    26  17  71 E7        30.45F WCI  18
FARIBAULT      FAIR      27  19  74 E12       30.46F WCI  16
OWATONNA       PTSUNNY   28  21  74 E9        30.44S WCI  20
WASECA         CLOUDY    28  23  80 E9        30.44F WCI  20
ALBERT LEA     FAIR      28  21  74 E8        30.41F WCI  20
$$
MNZ078>079-086>088-094>096-222000-
   Southeast Minnesota

CITY           SKY/WX    TMP DP  RH WIND       PRES   REMARKS
ROCHESTER      CLOUDY    26  21  81 E10       30.44F WCI  16
RED WING       PTSUNNY   27  10  50 SE7       30.49F WCI  19
STANTON        CLOUDY    28  19  68 E9        30.46F WCI  19
DODGE CENTER   FAIR      27  19  74 E9        30.43F WCI  17
WINONA         CLOUDY    30  19  64 SE6       30.50F WCI  24
AUSTIN         PTSUNNY   28  23  80 E9        30.42F WCI  20
PRESTON        CLOUDY    25  20  80 E7        30.46S WCI  18
$$
ABBREVIATIONS USED IN REMARKS
   TC - TEMPERATURES IN CELSIUS
  WCI - WIND CHILL INDEX
   HX - HEAT INDEX
  VSB - VISIBILITY
$$




USA.gov is the U.S. government's official web portal to all federal, state and local government web resources and services.